CZ-6A DEB, 54978

Orbit data source: Space-Track

CZ-6A DEB, 54978 is space debris in SSO originally from a launch on Fri, 11 Nov 2022 UTC launched from the Taiyaun Space Center, China (TSC). Debris objects in space refer to the collection of defunct objects orbiting the Earth. Examples of debris include non-operational satellites, rocket bodies, and fragments generated from explosions, collisions, or faulty payload assembly.

Loading next visibility...
Identifier
54978, 2022-151TT
Orbit
SSO
Country
Flag of CNCN / PRC
Related business
Manufacturer
SAST
Mission
Spacecraft
Bus & Motor
Unknown
Mass
Unknown
Launch date (UTC)
2022-11-11 (4 years ago)
Launch vehicle
Unknown
Launch site
Taiyaun Space Center, China (TSC)
Object type
Payload
Rocket body
Debris
Shape & HBR
Unknown shape, 0.1 m
Radar Cross Section
Small (<0.1 m²)

Expand to show TLE details & history
Last TLE update: 2 days ago

TLE from 2 days ago
0 CZ-6A DEB
1 54978U 22151TT  26170.94950361  .00001158  00000-0  58683-3 0  9995
2 54978  98.8300 179.3496 0040616 314.1692  45.6147 14.17611513185084
Epoch: 2026-06-19T22:47Z
TLE epoch observation values (Epoch: 2026-06-19T22:47:17.111Z)
Latitude
-0.00002°
Longitude
-70.64283°
Altitude
815.918 km
Speed
7.456 km/s
True Right ascension
11h 57m 23s
True Declination
0° 00' 00"
Sunlit
Object was in daylight at epoch
Visualization orbit readout
Latitude
Unknown
Longitude
Unknown
Altitude
Unknown
Speed
Unknown
Apparent Right ascension
Unknown
Apparent Declination
Unknown
Sunlit
N/A
Visualization observer readout
Local Sidereal Time
21:27:54
Azimuth
Unknown
Elevation
Unknown
Doppler factor
Unknown
Orbital elements
Apogee altitude
859.888 km
Perigee altitude
801.33 km
Semi-major axis
7,208.746 km
Eccentricity
0.00406
Inclination
98.83°
RAAN
179.3496°
Arg. of periapsis
314.1692°
True anomaly
45.9485°
Mean anomaly
45.6147°
Eccentric anomaly
45.78148°
Mean motion
3.54612 °/min
Orbital period
101.52 mins
BSTAR
0.00058683
Loading maneuver chart data...
Computing Atmospheric mass density...
Loading historical data...
Loading historical data...
Loading historical data...
Loading historical data...
Loading historical data...
Loading historical data...
Loading historical data...

Documentation

Showing up to 5 results
|